Observations for Trim Patrick St
| Time | AQI | Temp °C | Hum % | Pres Pa | CO μg/m³ | H₂S μg/m³ | NO μg/m³ | NO₂ μg/m³ | O₃ μg/m³ | SO₂ μg/m³ | PM1 μg/m³ | PM2.5 μg/m³ | PM10 μg/m³ |
|---|---|---|---|---|---|---|---|---|---|---|---|---|---|
| Saturday 8 August 2026 | |||||||||||||
| 11:48 | 1 | 27.1 | 42 | 69,082 | 0 | 0 | 1.22 | 9.81 | 69.1 | 8.97 | 2 | 6.92 | 7.61 |
| 11:47 | 1 | 27.1 | 42 | 69,065 | 0 | 0 | 1.22 | 10.38 | 63.27 | 8.65 | 2.86 | 7.68 | 8.45 |
| 11:46 | 1 | 27.1 | 42 | 69,071 | 0 | 0 | 1.22 | 10.29 | 57.91 | 8.14 | 2 | 7.71 | 8.48 |
| 11:43 | 1 | 27 | 44 | 69,072 | 0 | 0 | 1.19 | 9.5 | 53.45 | 8.53 | 2.86 | 7.59 | 8.35 |
| 11:39 | 1 | 26.7 | 44 | 69,082 | 0 | 0 | 1.26 | 9.43 | 68.84 | 8.29 | 2.86 | 8.37 | 9.21 |
| 11:37 | 1 | 26.6 | 43 | 69,074 | 0 | 0 | 1.3 | 9.89 | 65.19 | 7.73 | 2 | 6.84 | 7.53 |
| 11:33 | 1 | 26.4 | 45 | 69,063 | 0 | 0 | 1.29 | 9.87 | 66.63 | 7.12 | 2 | 6.71 | 7.38 |
| 11:32 | 1 | 26.3 | 44 | 69,069 | 0 | 0 | 1.32 | 10.16 | 63.75 | 7.58 | 2 | 6.76 | 7.44 |
| 11:31 | 1 | 26.2 | 44 | 69,076 | 0 | 0 | 1.29 | 10.36 | 65.02 | 7.27 | 2.86 | 7.55 | 8.31 |
| 11:30 | 1 | 26.1 | 44 | 69,084 | 0 | 0 | 1.3 | 10.13 | 66.75 | 7.19 | 2 | 6.81 | 7.49 |
| 11:29 | 1 | 26 | 44 | 69,098 | 0 | 0 | 1.2 | 10.13 | 54.41 | 6.75 | 2 | 6.8 | 7.48 |
| 11:28 | 1 | 25.9 | 45 | 69,086 | 0 | 0 | 1.32 | 10.45 | 63.72 | 6.87 | 2.86 | 7.52 | 8.27 |
| 11:27 | 1 | 25.9 | 45 | 69,072 | 0 | 0 | 1.4 | 10.15 | 52.05 | 6.63 | 2 | 7.48 | 8.22 |
| 11:26 | 1 | 25.8 | 45 | 69,084 | 0 | 0 | 1.42 | 10.45 | 68.65 | 7.07 | 2.86 | 7.52 | 8.27 |
| 11:25 | 1 | 25.7 | 45 | 69,090 | 0 | 0 | 1.48 | 10.55 | 62.63 | 6.69 | 2.86 | 7.48 | 8.23 |
| 11:24 | 1 | 25.7 | 46 | 69,104 | 0 | 0 | 1.47 | 10.5 | 60.18 | 6.31 | 2 | 7.46 | 8.21 |
| 11:23 | 1 | 25.6 | 45 | 69,094 | 0 | 0 | 1.45 | 8.99 | 50.79 | 6.63 | 2 | 7.48 | 8.23 |
| 11:22 | 1 | 25.5 | 46 | 69,108 | 0 | 0 | 1.46 | 10.88 | 57.5 | 7.05 | 2.86 | 7.4 | 8.15 |
| 11:21 | 1 | 25.4 | 47 | 69,120 | 0 | 0 | 1.51 | 10.92 | 66.44 | 7.22 | 2 | 6.63 | 7.29 |
| 11:20 | 1 | 25.3 | 46 | 69,108 | 0 | 0 | 1.43 | 11.9 | 59.98 | 6.79 | 2 | 7.4 | 8.15 |